User: anonymous   Login
Location: Bouchavesnes-Bergen
(49.9859°N, 2.9203°E)
Time: 03:09:53
(UTC+00:00)
Language:

COSMOS 2487 - Orbit

View from above orbital plane
View from above orbital plane
View from above satellite
View from above satellite

Ground track
Ground track

The orbit data is extracted from the following two-line orbital elements,

1 39194U 13032A   21125.75973186  .00004771  00000-0  10494-3 0  9992
2 39194  74.7076  93.5298 0001808 202.6482 157.4652 15.44228326439762
Epoch (UTC): 05 May 2021 18:14:00
Eccentricity: 0.0001808
inclination: 74.7076°
perigee height: 432 km
apogee height: 435 km
right ascension of ascending node: 93.5298°
argument of perigee: 202.6482°
revolutions per day: 15.44228326
mean anomaly at epoch: 157.4652°
orbit number at epoch: 43976

The dashed part of the orbit path shows where the satellite is in the earth's shadow,  

DLR